Regional Weather Roundup
Issued by NWS

Home | Current Version | Previous Version | Graphics & Text | Print | Product List | Glossary On
Versions: 1 2 3 4 5 6 7 8 9 10 11 12 13 14 15 16 17 18 19 20 21 22 23 24 25 26 27 28 29 30 31 32 33 34 35 36 37 38 39 40 41 42 43 44 45 46 47 48 49 50
000
ASUS43 KLSX 122207
RWRMO

WEATHER SUMMARY FOR MISSOURI
NATIONAL WEATHER SERVICE SPRINGFIELD MO
400 PM CST FRI FEB 12 2016

NOTE: "FAIR" INDICATES FEW OR NO CLOUDS BELOW 12,000 FEET WITH NO
       SIGNIFICANT WEATHER AND/OR OBSTRUCTIONS TO VISIBILITY.
       CURRENT SKY AND/OR WEATHER CONDITIONS ARE NOT AVAILABLE FOR
       CHILLICOTHE AND FARMINGTON.

MOZ001>031-035>038-043-044-053-054-122300-
...NORTHERN AND WESTERN MISSOURI...

CITY           SKY/WX    TMP DP  RH WIND       PRES   REMARKS
KANSAS CTY INT SUNNY     34  13  41 N15G22    30.46R WCI  24
KANSAS C DTWN  SUNNY     37  13  37 N14G22    30.46R WCI  28
LEE`S SUMMIT   SUNNY     35  14  42 N16       30.44R WCI  25
ST JOSEPH      SUNNY     32  10  40 N20       30.50R WCI  20
CHILLICOTHE      N/A     31   8  38 N10G21    30.47R WCI  22
KIRKSVILLE     SUNNY     25   6  44 NW14G23   30.44R WCI  13

$$
MOZ066>068-077>081-088>096-101>105-122300-
...SOUTHWEST MISSOURI...

CITY           SKY/WX    TMP DP  RH WIND       PRES   REMARKS
SPRINGFIELD    SUNNY     44  21  40 N16       30.35R
JOPLIN         SUNNY     45  26  47 N13       30.39R

$$
MOZ032>034-039>042-045>050-055>058-069>072-122300-
...CENTRAL MISSOURI...

CITY           SKY/WX    TMP DP  RH WIND       PRES   REMARKS
COLUMBIA       SUNNY     34  15  46 NW16G23   30.39R WCI  24
JEFFERSON CITY SUNNY     35  14  42 NW13G30   30.41R WCI  26
ROLLA          SUNNY     36  18  48 NW16      30.33R WCI  26
SEDALIA        SUNNY     36  14  40 NW15      30.43R WCI  27
WHITEMAN AFB   MOSUNNY   35  14  41 N17G23    30.42R WCI  25
WARRENSBURG    SUNNY     34  16  47 NW12G18   30.44R WCI  25
OSAGE BEACH    SUNNY     39  18  41 NW10G22   30.38R

$$
MOZ051-052-059>065-122300-
...EAST CENTRAL MISSOURI...

CITY           SKY/WX    TMP DP  RH WIND       PRES   REMARKS
ST LOUIS INTL  MOSUNNY   30  15  53 NW18G26   30.35R WCI  18
SPIRIT OF STL  MOSUNNY   32  16  51 NW16G29   30.36R WCI  21
ST CHARLES     SUNNY     30  15  53 NW20      30.37R WCI  17

$$
MOZ072>076-082>087-097>100-106>115-122300-
...SOUTH CENTRAL AND SOUTHEAST MISSOURI...

CITY           SKY/WX    TMP DP  RH WIND       PRES   REMARKS
CAPE GIRARDEAU MOSUNNY   40  24  53 N16       30.30R
FARMINGTON     SUNNY     38  20  48 NW15G22   30.30R WCI  29
POPLAR BLUFF   SUNNY     47  24  40 N14       30.28R
WEST PLAINS    SUNNY     46  20  35 N15G22    30.31R

$$


USA.gov is the U.S. government's official web portal to all federal, state and local government web resources and services.